Weather reports worldwide

Advertisment
Chivenor, United Kingdom (3707): temperature & dewpoint: 18.06.2018 10:00:00 - 24.06.2018 10:00:00 (BST)Chivenor, United Kingdom (3707): temperature -20cm & temperature -100cm: 18.06.2018 10:00:00 - 24.06.2018 10:00:00 (BST)Chivenor, United Kingdom (3707): wind speed & gusts: 18.06.2018 10:00:00 - 24.06.2018 10:00:00 (BST)Chivenor, United Kingdom (3707): wind direction: 18.06.2018 10:00:00 - 24.06.2018 10:00:00 (BST)Chivenor, United Kingdom (3707): reduced air pressure: 18.06.2018 10:00:00 - 24.06.2018 10:00:00 (BST)Chivenor, United Kingdom (3707): visibility: 18.06.2018 10:00:00 - 24.06.2018 10:00:00 (BST)Chivenor, United Kingdom (3707): precipitation: 18.06.2018 10:00:00 - 24.06.2018 10:00:00 (BST)
Date & Time tt [°C] td [°C] tt -20cm [°C] tt -100cm [°C] ff [km/h] ff [kn] fx [km/h] fx [kn] dd ppp [hPa] vv [km] rr [mm]
24.06.2018 10:00:00 18,6 11,3 - - 4 2 - - SW 1026,1 45 0,0
24.06.2018 09:00:00 16,5 10,6 - - 4 2 - - E 1026,1 28 0,0
24.06.2018 08:00:00 12,7 9,9 - - 8 4 - - E 1026,1 35 0,0
24.06.2018 07:00:00 10,3 8,5 - - 11 6 - - E 1026,2 35 0,0
24.06.2018 06:00:00 8,8 7,7 - - 11 6 - - E 1026,0 40 0,0
24.06.2018 05:00:00 8,8 7,4 - - 9 5 - - E 1025,8 45 0,0
24.06.2018 04:00:00 8,8 7,4 - - 11 6 - - E 1025,8 40 0,0
24.06.2018 03:00:00 10,3 8,5 - - 11 6 - - ENE 1026,3 45 0,0
24.06.2018 02:00:00 10,9 8,7 - - 8 4 - - E 1026,9 40 0,0
24.06.2018 01:00:00 11,4 8,6 - - 5 3 - - E 1026,9 50 0,0
24.06.2018 00:00:00 12,5 9,5 - - 4 2 - - E 1027,1 40 0,0
23.06.2018 23:00:00 13,5 11,3 - - 5 3 - - NW 1027,4 35 0,0
23.06.2018 22:00:00 14,4 11,3 - - 11 6 - - W 1027,4 50 0,0
23.06.2018 21:00:00 15,7 10,4 - - 9 5 - - W 1027,2 40 0,0
23.06.2018 20:00:00 17,2 7,8 - - 11 6 - - WNW 1027,2 35 0,0
23.06.2018 19:00:00 18,9 8,3 - - 9 5 - - W 1027,3 50 0,0
23.06.2018 18:00:00 19,7 9,4 - - 15 8 - - W 1027,8 45 0,0
23.06.2018 17:00:00 20,5 8,9 - - 18 10 - - W 1028,0 40 0,0
23.06.2018 16:00:00 22,0 7,1 - - 16 9 - - NW 1028,6 29 0,0
23.06.2018 15:00:00 21,1 6,9 - - 18 10 - - NNW 1029,0 40 0,0
23.06.2018 14:00:00 21,4 8,5 - - 18 10 - - WNW 1029,3 50 0,0
23.06.2018 13:00:00 20,8 8,3 - - 16 9 - - W 1029,6 35 0,0
23.06.2018 12:00:00 21,3 10,5 - - 18 10 - - WSW 1029,7 40 0,0
23.06.2018 11:00:00 20,5 9,7 - - 8 4 - - WSW 1029,8 30 0,0
23.06.2018 10:00:00 19,0 10,7 17,9 17,0 4 2 - - E 1030,0 27 0,0
23.06.2018 09:00:00 16,1 11,2 - - 8 4 - - E 1030,2 21 0,0
23.06.2018 08:00:00 12,8 9,8 - - 9 5 - - E 1030,3 22 0,0
23.06.2018 07:00:00 10,4 8,9 - - 13 7 - - E 1030,4 27 0,0
23.06.2018 06:00:00 8,9 8,0 - - 11 6 - - E 1030,1 29 0,0
23.06.2018 05:00:00 8,7 7,9 - - 13 7 - - E 1030,6 35 0,0
23.06.2018 04:00:00 8,6 7,5 - - 11 6 - - E 1030,8 25 0,0
23.06.2018 03:00:00 9,9 8,7 - - 8 4 - - ENE 1030,7 35 0,0
23.06.2018 02:00:00 9,9 8,9 - - 9 5 - - E 1030,6 28 0,0
23.06.2018 01:00:00 10,3 8,6 - - 9 5 - - E 1030,9 23 0,0
23.06.2018 00:00:00 11,8 9,2 - - 2 1 - - NNE 1031,0 40 0,0
22.06.2018 23:00:00 13,0 9,8 - - 5 3 - - W 1031,1 30 0,0
22.06.2018 22:00:00 14,2 10,0 - - 9 5 - - NW 1030,9 35 0,0
22.06.2018 21:00:00 16,1 9,8 - - 5 3 - - NW 1030,8 27 0,0
22.06.2018 20:00:00 17,0 8,5 - - 13 7 - - NNW 1030,9 35 0,0
22.06.2018 19:00:00 17,4 10,2 - - 15 8 - - WNW 1031,0 45 0,0
22.06.2018 18:00:00 17,5 10,3 - - 15 8 - - W 1031,2 45 0,0
22.06.2018 17:00:00 18,4 9,1 - - 16 9 - - W 1031,4 50 0,0
22.06.2018 16:00:00 19,1 9,5 - - 22 12 - - NW 1031,7 35 0,0
22.06.2018 15:00:00 17,8 8,0 - - 26 14 - - NW 1031,7 35 0,0
22.06.2018 14:00:00 18,2 8,6 - - 21 11 - - N 1031,9 30 0,0
22.06.2018 13:00:00 18,1 5,8 - - 15 8 - - N 1032,4 40 0,0
22.06.2018 12:00:00 16,7 6,3 - - 13 7 - - NNW 1032,7 29 0,0
22.06.2018 11:00:00 15,7 6,1 - - 16 9 - - NNW 1032,8 23 0,0
22.06.2018 10:00:00 15,0 7,9 17,4 17,0 13 7 - - NNE 1032,8 18 0,0
22.06.2018 09:00:00 14,1 7,3 - - 16 9 - - N 1032,9 28 0,0
22.06.2018 08:00:00 13,4 6,6 - - 15 8 - - N 1032,9 24 0,0
22.06.2018 07:00:00 11,7 6,6 - - 4 2 - - W 1032,8 30 0,0
22.06.2018 06:00:00 9,6 5,2 - - 5 3 - - NW 1032,5 45 0,0
22.06.2018 05:00:00 9,4 5,1 - - 4 2 - - NNE 1032,4 50 0,0
22.06.2018 04:00:00 11,5 6,1 - - 8 4 - - NE 1032,3 45 0,0
22.06.2018 03:00:00 11,1 6,2 - - 4 2 - - N 1032,1 50 0,0
22.06.2018 02:00:00 11,6 6,5 - - 8 4 - - N 1032,2 40 0,0
22.06.2018 01:00:00 12,3 6,9 - - 4 2 - - ENE 1032,1 50 0,0
22.06.2018 00:00:00 12,8 7,1 - - 15 8 - - NNE 1031,8 45 0,0
21.06.2018 23:00:00 13,1 7,2 - - 18 10 - - NNE 1031,7 50 0,0
21.06.2018 22:00:00 13,5 7,3 - - 18 10 - - N 1031,1 50 0,0
21.06.2018 21:00:00 15,2 6,2 - - 22 12 - - N 1030,7 40 0,0
21.06.2018 20:00:00 16,1 7,4 - - 26 14 46 25 N 1030,3 45 0,0
21.06.2018 19:00:00 16,8 6,9 - - 28 15 - - N 1030,2 40 0,0
21.06.2018 18:00:00 16,2 6,2 - - 34 18 - - NNW 1030,1 30 0,0
21.06.2018 17:00:00 17,4 6,7 - - 31 17 - - NNW 1029,8 29 0,0
21.06.2018 16:00:00 17,2 6,0 - - 31 17 - - NNW 1029,8 40 0,0
21.06.2018 15:00:00 17,1 7,2 - - 24 13 - - NNW 1029,6 35 0,0
21.06.2018 14:00:00 15,9 6,6 - - 28 15 - - NNW 1029,5 23 0,0
21.06.2018 13:00:00 16,1 7,2 - - 22 12 - - NNW 1029,5 24 0,0
21.06.2018 12:00:00 15,2 6,2 - - 18 10 - - N 1029,1 35 0,0
21.06.2018 11:00:00 14,2 5,9 - - 18 10 - - N 1028,8 50 0,0
21.06.2018 10:00:00 13,4 5,8 17,7 17,2 18 10 - - N 1028,7 30 0,0
21.06.2018 09:00:00 13,1 5,8 - - 21 11 - - N 1028,1 35 0,0
21.06.2018 08:00:00 12,9 6,0 - - 22 12 - - N 1027,5 30 0,0
21.06.2018 07:00:00 12,3 6,4 - - 22 12 - - N 1027,1 40 0,0
21.06.2018 06:00:00 11,8 7,3 - - 18 10 - - NNW 1026,3 45 0,0
21.06.2018 05:00:00 12,2 7,5 - - 21 11 - - NNW 1025,9 50 0,0
21.06.2018 04:00:00 12,2 9,6 - - 13 7 - - NNW 1025,5 35 0,0
21.06.2018 03:00:00 12,3 8,6 - - 11 6 - - NNW 1025,2 50 0,0
21.06.2018 02:00:00 12,5 9,7 - - 11 6 - - NNW 1024,9 30 0,0
21.06.2018 01:00:00 10,9 9,6 - - 8 4 - - NW 1024,8 25 0,0
21.06.2018 00:00:00 10,5 8,8 - - 5 3 - - NW 1024,3 35 0,0
20.06.2018 23:00:00 11,1 8,8 - - 5 3 - - NW 1024,0 30 0,0
20.06.2018 22:00:00 12,7 9,2 - - 9 5 - - NW 1023,3 30 0,0
20.06.2018 21:00:00 14,8 10,2 - - 18 10 - - NW 1022,6 40 0,0
20.06.2018 20:00:00 15,0 11,3 - - 16 9 - - NNW 1022,3 50 0,0
20.06.2018 19:00:00 15,3 12,9 - - 16 9 - - NW 1021,8 16 0,0
20.06.2018 18:00:00 16,2 13,7 - - 16 9 - - W 1021,3 25 0,0
20.06.2018 17:00:00 16,5 13,7 - - 21 11 - - W 1021,4 35 0,0
20.06.2018 16:00:00 17,7 14,3 - - 22 12 - - W 1021,3 30 0,0
20.06.2018 15:00:00 16,8 15,2 - - 21 11 - - WSW 1021,4 14 0,0
20.06.2018 14:00:00 16,1 15,7 - - 24 13 - - W 1021,5 2,7 0,2
20.06.2018 13:00:00 17,2 15,5 - - 28 15 - - WSW 1021,5 5 0,0
20.06.2018 12:00:00 18,2 15,9 - - 29 16 - - WSW 1021,3 50 0,0
20.06.2018 11:00:00 17,6 15,7 - - 24 13 - - WSW 1021,2 10 0,0
20.06.2018 10:00:00 17,8 15,5 19,0 17,2 24 13 - - SW 1021,1 50 0,0
20.06.2018 09:00:00 17,3 15,4 - - 28 15 - - WSW 1021,0 50 0,0
20.06.2018 08:00:00 16,7 15,2 - - 15 8 - - SW 1021,1 45 0,0
20.06.2018 07:00:00 16,1 14,7 - - 9 5 - - SSW 1020,8 50 0,0
20.06.2018 06:00:00 15,9 14,5 - - 9 5 - - S 1020,8 45 0,0
20.06.2018 05:00:00 15,8 14,4 - - 11 6 - - SW 1021,1 35 0,0
20.06.2018 04:00:00 15,7 14,3 - - 16 9 - - WSW 1021,7 15 0,0
20.06.2018 03:00:00 15,9 14,6 - - 8 4 - - W 1021,5 15 0,0
20.06.2018 02:00:00 16,5 14,7 - - 4 2 - - WSW 1021,9 35 0,0
20.06.2018 01:00:00 16,6 14,7 - - 2 1 - - W 1022,3 26 0,0
20.06.2018 00:00:00 16,6 14,7 - - 11 6 - - W 1022,8 45 0,0
19.06.2018 23:00:00 17,1 14,7 - - 15 8 - - WSW 1023,0 40 0,0
19.06.2018 22:00:00 17,2 14,7 - - 21 11 - - WSW 1023,1 26 0,0
19.06.2018 21:00:00 17,5 14,9 - - 16 9 - - WSW 1023,1 30 0,0
19.06.2018 20:00:00 18,0 15,0 - - 18 10 - - WSW 1023,2 40 0,0
19.06.2018 19:00:00 19,1 15,3 - - 22 12 - - WSW 1023,2 40 0,0
19.06.2018 18:00:00 19,5 15,4 - - 28 15 - - W 1023,5 40 0,0
19.06.2018 17:00:00 20,2 16,3 - - 26 14 - - WSW 1023,7 50 0,0
19.06.2018 16:00:00 21,2 16,2 - - 22 12 - - W 1023,6 27 0,0
19.06.2018 15:00:00 20,9 16,5 - - 22 12 - - W 1023,8 35 0,0
19.06.2018 14:00:00 21,4 16,5 - - 24 13 - - WSW 1023,6 45 0,0
19.06.2018 13:00:00 20,2 16,7 - - 22 12 - - WSW 1023,9 29 0,0
19.06.2018 12:00:00 19,2 16,4 - - 21 11 - - WSW 1024,1 35 0,0
19.06.2018 11:00:00 17,8 16,0 - - 22 12 - - WSW 1024,1 40 0,0
19.06.2018 10:00:00 16,8 15,9 18,4 17,2 18 10 - - WSW 1024,1 30 0,0
19.06.2018 09:00:00 16,5 16,0 - - 13 7 - - W 1023,9 35 0,0
19.06.2018 08:00:00 15,8 15,6 - - 15 8 - - WSW 1023,7 17 0,0
19.06.2018 07:00:00 15,4 15,2 - - 18 10 - - W 1023,4 4,7 0,0
19.06.2018 06:00:00 15,1 15,0 - - 21 11 - - W 1023,0 2,8 0,0
19.06.2018 05:00:00 15,1 14,9 - - 21 11 - - W 1022,8 6 0,2
19.06.2018 04:00:00 15,3 15,0 - - 22 12 - - W 1022,8 2,4 0,0
19.06.2018 03:00:00 15,4 15,1 - - 24 13 - - W 1022,8 3,1 0,0
19.06.2018 02:00:00 15,5 15,1 - - 24 13 - - W 1022,8 7 0,2
19.06.2018 01:00:00 15,7 15,2 - - 28 15 - - W 1022,6 3,6 0,0
19.06.2018 00:00:00 16,0 15,1 - - 28 15 - - W 1022,5 11 0,0
18.06.2018 23:00:00 16,1 15,2 - - 28 15 - - WSW 1022,8 20 0,0
18.06.2018 22:00:00 16,4 15,1 - - 29 16 - - WSW 1022,5 13 0,0
18.06.2018 21:00:00 16,4 15,1 - - 28 15 - - WSW 1022,2 16 0,0
18.06.2018 20:00:00 16,8 15,4 - - 29 16 - - WSW 1021,8 22 0,0
18.06.2018 19:00:00 16,9 15,5 - - 34 18 - - WSW 1021,6 15 0,0
18.06.2018 18:00:00 17,3 15,4 - - 31 17 - - WSW 1021,3 15 0,0
18.06.2018 17:00:00 18,0 15,3 - - 34 18 - - WSW 1021,2 23 0,0
18.06.2018 16:00:00 18,1 15,7 - - 31 17 - - WSW 1021,2 14 0,0
18.06.2018 15:00:00 17,3 15,2 - - 26 14 - - W 1021,3 17 0,0
18.06.2018 14:00:00 18,4 15,3 - - 29 16 - - WSW 1021,2 27 0,0
18.06.2018 13:00:00 17,0 14,3 - - 26 14 - - WSW 1021,5 40 0,0
18.06.2018 12:00:00 16,4 13,4 - - 16 9 - - W 1021,6 10 0,0
18.06.2018 11:00:00 16,3 12,6 - - 16 9 - - W 1021,3 17 0,0
18.06.2018 10:00:00 15,5 12,1 18,0 17,4 16 9 - - W 1021,3 15 0,0

tt = temperature
td = dewpoint
tt -20cm = temperature -20cm
tt -100cm = temperature -100cm
ff = wind speed
fx = gusts
dd = wind direction
ppp = reduced air pressure
vv = visibility
rr = precipitation

Next stations